Regional Weather Roundup
Issued by NWS

Home | Current Version | Previous Version | Graphics & Text | Print | Product List | Glossary On
Versions: 1 2 3 4 5 6 7 8 9 10 11 12 13 14 15 16 17 18 19 20 21 22 23 24 25 26 27 28 29 30 31 32 33 34 35 36 37 38 39 40 41 42 43 44 45 46 47 48 49 50
000
ASUS43 KDTX 231910
RWRMI
MICHIGAN HOURLY REGIONAL WEATHER ROUNDUP
NATIONAL WEATHER SERVICE DETROIT/PONTIAC MI
300 PM EDT TUE SEP 23 2014

NOTE: "FAIR" INDICATES FEW OR NO CLOUDS BELOW 12,000 FEET WITH NO
SIGNIFICANT WEATHER AND/OR OBSTRUCTION TO VISIBILITY.

MIZ047>049-052>055-059>063-066>070-074>076-081>083-232000-
SOUTHEAST LOWER MICHIGAN

CITY           SKY/WX    TMP DP  RH WIND       PRES   REMARKS
ADRIAN         SUNNY     69  48  47 VRB5      30.34F
ALMA           SUNNY     72  50  46 W6        30.31F
ANN ARBOR      SUNNY     69  48  47 CALM      30.32F
BAD AXE        SUNNY     71  54  56 W7G17     30.32R
DETROIT CITY   SUNNY     70  52  52 VRB6      30.33F
DETROIT        SUNNY     69  50  50 SW7       30.34F
FLINT          SUNNY     73  53  49 NW5       30.32S
GROSSE ILE     SUNNY     66  52  59 S8        30.33F
HILLSDALE      SUNNY     71  47  43 CALM      30.33F
HOWELL         SUNNY     69  50  51 CALM      30.32F

CITY           SKY/WX    TMP DP  RH WIND       PRES   REMARKS
JACKSON        SUNNY     71  50  47 VRB6      30.33F
LAMBERTVILLE   SUNNY     70  46  43 CALM      30.34F
LANSING        SUNNY     71  51  49 SW9       30.33F
LAPEER         NOT AVBL
MASON          SUNNY     70  52  53 CALM      30.33S
MONROE         SUNNY     70  46  43 CALM      30.32F
MT. CLEMENS    MOSUNNY   69  51  51 W3        30.31S
PONTIAC        MOSUNNY   70  51  51 VRB7      30.33S
PORT HOPE        N/A     71  51  49 SW8       30.29S
PORT HURON     MOSUNNY   68  52  56 S6        30.33S
TRI CITIES     SUNNY     73  53  49 W9        30.31F
YPSILANTI      SUNNY     72  50  45 SW7       30.34F
$$
MIZ043>046-050>051-056>058-064>065-071>073-077>080-232000-
SOUTHWEST LOWER MICHIGAN

CITY           SKY/WX    TMP DP  RH WIND       PRES   REMARKS
BATTLE CREEK   SUNNY     70  50  49 VRB6      30.34F
BENTON HARBOR  SUNNY     65  53  65 W12       30.34F
BIG RAPIDS     MOSUNNY   72  57  59 W9        30.30F
COLDWATER      SUNNY     71  49  45 NW3       30.33F
HOLLAND        SUNNY     69  55  60 SW9       30.34F
GRAND RAPIDS   MOSUNNY   72  54  53 W9        30.32F
KALAMAZOO      SUNNY     71  50  47 VRB6      30.34F
MARSHALL       SUNNY     69  49  48 W5        30.32F
MUSKEGON       MOSUNNY   67  53  61 SW9       30.33F
$$
MIZ016>042-232000-
NORTHERN LOWER MICHIGAN

CITY           SKY/WX    TMP DP  RH WIND       PRES   REMARKS
ALPENA         MOSUNNY   75  53  46 NW9       30.26S
BEAVER ISLAND  SUNNY     65  56  72 W10       30.28S
BELLAIRE       SUNNY     73  55  53 W7        30.28S
CADILLAC       SUNNY     71  56  59 W6        30.30S
CHARLEVOIX     SUNNY     68  58  69 W9        30.31S
FRANKFORT      CLEAR     66  54  63 SW6       30.30S
GAYLORD        SUNNY     70  50  49 W10       30.29S
GRAYLING       SUNNY     74  53  48 W6        30.30R
HARBOR SPRINGS SUNNY     69  57  64 W7        30.27F
HOUGHTON LAKE  SUNNY     72  55  55 W7        30.30S
MANISTEE       SUNNY     70  50  49 W9        30.31F
OSCODA         SUNNY     75  54  47 SW8       30.26F
PELLSTON       SUNNY     71  54  54 SW10      30.27S
TRAVERSE CITY  MOSUNNY   74  53  48 W9        30.27F
$$
MIZ007>008-015-232000-
EASTERN UPPER MICHIGAN

CITY           SKY/WX    TMP DP  RH WIND       PRES   REMARKS
KINROSS        SUNNY     72  55  56 NW6       30.25S
MACKINAC ISLAN SUNNY     64  56  76 SW12G17   30.27S
NEWBERRY       SUNNY     73  56  54 W7        30.24S
S. S. MARIE    SUNNY     69  53  56 W8        30.24S
$$
MIZ004>006-011>014-085-232000-
CENTRAL UPPER MICHIGAN

CITY           SKY/WX    TMP DP  RH WIND       PRES   REMARKS
MANISTIQUE     SUNNY     66  56  71 S8        30.26S
ESCANABA       SUNNY     66  55  68 S10       30.25S
MENOMINEE      SUNNY     73  55  53 SW10G16   30.25S
SAWYER-GWINN   SUNNY     75  50  41 SE7       30.24F
$$
MIZ001>003-009>011-084-232000-
WESTERN UPPER MICHIGAN

CITY           SKY/WX    TMP DP  RH WIND       PRES   REMARKS
IRON MOUNTAIN  SUNNY     76  51  41 VRB3      30.24F
HOUGHTON       SUNNY     72  52  49 W8        30.22F
COPPER HARBOR    N/A     59  50  72 N10       30.21S
IRONWOOD       SUNNY     73  48  40 S8        30.19F
$$

ABBREVIATIONS USED IN REMARKS
   TC - TEMPERATURE IN CELSIUS
  WCI - WIND CHILL INDEX
   HX - HEAT INDEX
  VSB - VISIBILITY



USA.gov is the U.S. government's official web portal to all federal, state and local government web resources and services.